Location: Berlise
(49.6641°N, 4.1077°E)
Time: 02:23:55
(UTC+00:00)

Cosmos 1461 - Pass Details

Date: 27 January 2021
Orbit: 502 x 662 km, 65.0° (Epoch: 28 February)

Event Time Altitude Azimuth Distance (km) Brightness Sun altitude
Exits shadow 05:11:29 29° 336° (NNW) 1,205 4.3 -21.1°
Drops below altitude 10° 05:15:14 10° 27° (NNE) 2,087 6.0 -20.5°
Sets 05:17:48 0° 38° (NE) 2,992 7.0 -20.1°
